New Castle, PA

11:07 AM EDT on May 24, 2017 (GMT -0400)
New Castle Municipal

Weather History for KUCP - January, 2013

Change the Weather History Date:

Sunday, January 20, 2013

  Actual Average Record
Temperature  
Mean Temperature 32 °F -  
Max Temperature 43 °F 34 °F 66 °F (1951)
Min Temperature 21 °F 15 °F -11 °F (1985)
Degree Days  
Heating Degree Days 33    
Moisture  
Dew Point 15 °F    
Average Humidity 54    
Maximum Humidity 60    
Minimum Humidity 43    
Precipitation  
Precipitation 0.00 in - - ()
Sea Level Pressure  
Sea Level Pressure 30.05 in    
Wind  
Wind Speed 14 mph (West)    
Max Wind Speed 25 mph    
Max Gust Speed 37 mph    
Visibility 10 miles    
Events Snow    
Averages and records for this station are not official NWS values.
T = Trace of Precipitation, MM = Missing Value Source: NWS Daily Summary

Daily Weather History Graph

Daily Weather History Graph

Search for Another Location

Airport or City:

Trip Planner

Search our weather history database for the weather conditions in past years. The results will help you decide how hot, cold, wet, or windy it might be!

Date:

Astronomy

Jan. 20, 2013 Rise Set
Actual Time 7:41 AM EST 5:24 PM EST
Civil Twilight 7:11 AM EST 5:54 PM EST
Nautical Twilight 6:38 AM EST 6:27 PM EST
Astronomical Twilight 6:05 AM EST 7:00 PM EST
Moon 12:24 PM EST (1/20) 2:12 AM EST (1/20)
Length of Visible Light 10h 42m
Length of Day
9h 42m
Waxing Gibbous, 66% of the Moon is Illuminated
Jan 20
Waxing Gibbous
Jan 26
Full
Feb 3
Last Quarter
Feb 10
New
Feb 17
First Quarter

Hourly Weather History & Observations

Time (EST) Temp. Windchill Dew Point Humidity Pressure Visibility Wind Dir Wind Speed Gust Speed Precip Events Conditions
12:56 AM 43.9 °F 36.8 °F 25.2 °F 48% 29.79 in 10.0 mi SW 15.0 mph - N/A   Scattered Clouds
1:56 AM 43.9 °F 37.5 °F 26.1 °F 50% 29.79 in 10.0 mi SW 12.7 mph - N/A   Scattered Clouds
2:56 AM 43.0 °F 35.4 °F 28.0 °F 56% 29.77 in 10.0 mi SW 16.1 mph - N/A   Clear
3:56 AM 43.0 °F 34.5 °F 29.1 °F 58% 29.78 in 10.0 mi WSW 19.6 mph 31.1 mph N/A   Partly Cloudy
4:56 AM 43.9 °F 35.2 °F 30.0 °F 58% 29.79 in 10.0 mi WSW 21.9 mph 35.7 mph N/A   Mostly Cloudy
5:56 AM 39.9 °F 30.0 °F 19.0 °F 43% 29.83 in 10.0 mi West 21.9 mph - N/A   Clear
6:56 AM 36.0 °F 23.9 °F 18.1 °F 48% 29.90 in 10.0 mi West 25.3 mph 36.8 mph N/A   Mostly Cloudy
7:56 AM 32.9 °F 24.1 °F 18.1 °F 55% 29.96 in 10.0 mi West 11.5 mph - N/A   Clear
8:56 AM 31.1 °F 19.3 °F 14.0 °F 49% 30.02 in 10.0 mi West 18.4 mph 24.2 mph N/A   Clear
9:56 AM 28.0 °F 15.3 °F 11.1 °F 49% 30.08 in 10.0 mi West 18.4 mph 27.6 mph N/A   Mostly Cloudy
10:56 AM 28.0 °F 16.5 °F 11.1 °F 49% 30.12 in 10.0 mi West 15.0 mph 27.6 mph N/A   Overcast
11:56 AM 28.0 °F 17.0 °F 10.0 °F 47% 30.14 in 10.0 mi West 13.8 mph - N/A   Mostly Cloudy
12:56 PM 25.2 °F 12.9 °F 9.1 °F 51% 30.14 in 10.0 mi WNW 15.0 mph - N/A   Overcast
1:56 PM 24.1 °F 14.4 °F 12.0 °F 60% 30.17 in 10.0 mi West 9.2 mph - 0.00 in Snow Light Snow
2:56 PM 24.1 °F 12.5 °F 10.0 °F 55% 30.17 in 10.0 mi West 12.7 mph - 0.00 in   Mostly Cloudy
3:56 PM 24.1 °F 13.1 °F 10.0 °F 55% 30.17 in 10.0 mi West 11.5 mph - N/A   Partly Cloudy
4:56 PM 23.0 °F 15.8 °F 9.1 °F 55% 30.19 in 10.0 mi WNW 5.8 mph - N/A   Mostly Cloudy
5:56 PM 23.0 °F 14.7 °F 9.1 °F 55% 30.20 in 10.0 mi West 6.9 mph - N/A   Mostly Cloudy
6:56 PM 22.1 °F 14.7 °F 9.1 °F 58% 30.21 in 10.0 mi WNW 5.8 mph - N/A   Partly Cloudy
7:56 PM 22.1 °F 15.9 °F 9.1 °F 58% 30.23 in 10.0 mi NW 4.6 mph - N/A   Mostly Cloudy
8:56 PM 22.1 °F 13.7 °F 9.1 °F 58% 30.22 in 10.0 mi Variable 6.9 mph - N/A   Overcast
9:56 PM 22.1 °F 12.0 °F 9.1 °F 58% 30.22 in 10.0 mi West 9.2 mph - N/A   Overcast
10:56 PM 21.0 °F 12.4 °F 8.1 °F 57% 30.21 in 10.0 mi West 6.9 mph - N/A   Overcast
11:56 PM 21.0 °F 12.4 °F 9.1 °F 60% 30.19 in 10.0 mi West 6.9 mph - N/A   Overcast